Waskish, MN

4:56 PM CST on December 13, 2017 (GMT -0600)
Waskish Municipal

Weather History for KVWU - November, 2012

Change the Weather History Date:

Saturday, November 24, 2012

  Actual Average (KBDE) Record (KBDE)
Temperature  
Mean Temperature 12 °F -  
Max Temperature 24 °F 28 °F 50 °F (1984)
Min Temperature 0 °F 8 °F -26 °F (1985)
Degree Days  
Heating Degree Days 53    
Moisture  
Dew Point 11 °F    
Average Humidity 89    
Maximum Humidity 100    
Minimum Humidity 74    
Precipitation  
Precipitation 0.00 in - - ()
Sea Level Pressure  
Sea Level Pressure 29.97 in    
Wind  
Wind Speed 4 mph (SSE)    
Max Wind Speed 14 mph    
Max Gust Speed 18 mph    
Visibility 8 miles    
Events Snow    
Averages and records for this station are not official NWS values.
T = Trace of Precipitation, MM = Missing Value Source: NWS Daily Summary

Daily Weather History Graph

Daily Weather History Graph

Search for Another Location

Airport or City:

Trip Planner

Search our weather history database for the weather conditions in past years. The results will help you decide how hot, cold, wet, or windy it might be!

Date:

Astronomy

Nov. 24, 2012 Rise Set
Actual Time 7:38 AM CST 4:30 PM CST
Civil Twilight 7:03 AM CST 5:05 PM CST
Nautical Twilight 6:25 AM CST 5:44 PM CST
Astronomical Twilight 5:47 AM CST 6:21 PM CST
Moon 2:27 PM CST (11/24) 3:43 AM CST (11/24)
Length of Visible Light 10h 01m
Length of Day
8h 51m
Waxing Gibbous, 87% of the Moon is Illuminated
Nov 24
Waxing Gibbous
Nov 28
Full
Dec 6
Last Quarter
Dec 13
New
Dec 19
First Quarter

Hourly Weather History & Observations

Time (CST) Temp. Windchill Dew Point Humidity Pressure Visibility Wind Dir Wind Speed Gust Speed Precip Events Conditions
12:10 AM 6.8 °F -3.5 °F 5.0 °F 92% 30.31 in 7.0 mi NW 5.8 mph - N/A Snow Light Snow
12:29 AM 6.8 °F - 3.2 °F 85% 30.30 in 3.0 mi Calm Calm - N/A Snow Light Snow
12:49 AM 6.8 °F - 3.2 °F 85% 30.30 in 2.5 mi Calm Calm - N/A Snow Light Snow
1:29 AM 1.4 °F - -2.2 °F 85% 30.29 in 4.0 mi Calm Calm - N/A Snow Light Snow
2:10 AM -0.4 °F - -2.2 °F 92% 30.28 in 4.0 mi Calm Calm - N/A Snow Light Snow
2:49 AM 3.2 °F - 1.4 °F 92% 30.26 in 5.0 mi Calm Calm - N/A Snow Light Snow
3:10 AM 3.2 °F - 1.4 °F 92% 30.25 in 7.0 mi Calm Calm - N/A Snow Light Snow
3:29 AM 3.2 °F - 1.4 °F 92% 30.24 in 5.0 mi Calm Calm - N/A Snow Light Snow
3:49 AM 1.4 °F -6.2 °F -0.4 °F 92% 30.23 in 4.0 mi SE 3.5 mph - N/A Snow Light Snow
4:10 AM 3.2 °F -4.2 °F -0.4 °F 85% 30.22 in 10.0 mi SE 3.5 mph - N/A Snow Light Snow
4:29 AM 3.2 °F - 1.4 °F 92% 30.21 in 10.0 mi Calm Calm - N/A   Clear
4:49 AM 3.2 °F - 1.4 °F 92% 30.21 in 10.0 mi Calm Calm - N/A   Clear
5:10 AM 3.2 °F - 1.4 °F 92% 30.21 in 10.0 mi Calm Calm - N/A   Clear
5:29 AM 3.2 °F - 1.4 °F 92% 30.20 in 10.0 mi Calm Calm - N/A   Clear
5:49 AM 5.0 °F - 1.4 °F 85% 30.19 in 10.0 mi Calm Calm - N/A Snow Light Snow
6:10 AM 3.2 °F - 1.4 °F 92% 30.18 in 10.0 mi Calm Calm - N/A   Clear
6:29 AM 5.0 °F - 1.4 °F 85% 30.16 in 10.0 mi Calm Calm - N/A   Clear
6:49 AM 6.8 °F - 3.2 °F 85% 30.16 in 10.0 mi Calm Calm - N/A   Clear
7:10 AM 5.0 °F -2.1 °F 1.4 °F 85% 30.15 in 10.0 mi ESE 3.5 mph - N/A   Clear
7:29 AM 5.0 °F - 1.4 °F 85% 30.15 in 10.0 mi Calm Calm - N/A   Clear
7:50 AM 6.8 °F - 3.2 °F 85% 30.14 in 10.0 mi Calm Calm - N/A   Clear
8:09 AM 6.8 °F -2.0 °F 5.0 °F 92% 30.11 in 10.0 mi ESE 4.6 mph - N/A   Clear
8:29 AM 8.6 °F -2.6 °F 6.8 °F 92% 30.11 in 10.0 mi ESE 6.9 mph - N/A   Clear
8:50 AM 8.6 °F -2.6 °F 6.8 °F 92% 30.09 in 10.0 mi SE 6.9 mph - N/A Snow Light Snow
9:09 AM 10.4 °F 0.8 °F 8.6 °F 92% 30.08 in 10.0 mi SE 5.8 mph - N/A Snow Light Snow
9:29 AM 12.2 °F 1.7 °F 10.4 °F 92% 30.07 in 10.0 mi SE 6.9 mph - N/A Snow Light Snow
9:50 AM 14.0 °F 2.9 °F 10.4 °F 86% 30.06 in 10.0 mi SE 8.1 mph - N/A   Overcast
10:09 AM 14.0 °F 3.9 °F 12.2 °F 93% 30.05 in 10.0 mi SE 6.9 mph - N/A   Overcast
10:29 AM 15.8 °F 5.1 °F 12.2 °F 86% 30.04 in 10.0 mi SE 8.1 mph - N/A   Mostly Cloudy
10:50 AM 15.8 °F 3.4 °F 12.2 °F 86% 30.02 in 10.0 mi SSE 10.4 mph - N/A   Overcast
11:09 AM 15.8 °F 4.2 °F 12.2 °F 86% 30.00 in 10.0 mi SE 9.2 mph - N/A   Overcast
11:29 AM 17.6 °F 7.3 °F 12.2 °F 79% 29.99 in 10.0 mi SE 8.1 mph - N/A   Overcast
11:50 AM 17.6 °F 7.3 °F 12.2 °F 79% 30.00 in 10.0 mi SSE 8.1 mph - N/A   Mostly Cloudy
12:09 PM 19.4 °F 10.4 °F 12.2 °F 74% 29.97 in 10.0 mi SE 6.9 mph - N/A   Scattered Clouds
12:29 PM 17.6 °F 8.2 °F 12.2 °F 79% 29.95 in 10.0 mi SE 6.9 mph - N/A   Mostly Cloudy
12:50 PM 17.6 °F 7.3 °F 12.2 °F 79% 29.94 in 10.0 mi SE 8.1 mph - N/A   Mostly Cloudy
1:09 PM 17.6 °F 8.2 °F 12.2 °F 79% 29.94 in 10.0 mi SE 6.9 mph - N/A   Overcast
1:29 PM 19.4 °F 10.4 °F 14.0 °F 80% 29.92 in 10.0 mi SE 6.9 mph - N/A   Overcast
1:50 PM 19.4 °F 9.5 °F 14.0 °F 80% 29.89 in 10.0 mi ESE 8.1 mph - N/A   Overcast
2:09 PM 19.4 °F 9.5 °F 14.0 °F 80% 29.87 in 10.0 mi ESE 8.1 mph 16.1 mph N/A   Overcast
2:30 PM 19.4 °F 6.6 °F 14.0 °F 80% 29.85 in 10.0 mi SE 12.7 mph - N/A   Overcast
2:49 PM 19.4 °F 7.9 °F 15.8 °F 86% 29.82 in 10.0 mi ESE 10.4 mph - N/A   Overcast
3:09 PM 19.4 °F 9.5 °F 15.8 °F 86% 29.81 in 10.0 mi SE 8.1 mph - N/A   Overcast
3:30 PM 19.4 °F 8.6 °F 14.0 °F 80% 29.79 in 7.0 mi SE 9.2 mph 17.3 mph N/A Snow Light Snow
3:49 PM 19.4 °F 10.4 °F 15.8 °F 86% 29.80 in 1.0 mi SE 6.9 mph - N/A Snow Light Snow
4:09 PM 19.4 °F 9.5 °F 15.8 °F 86% 29.78 in 1.0 mi SE 8.1 mph - N/A Snow Light Snow
4:30 PM 19.4 °F 10.4 °F 17.6 °F 93% 29.78 in 2.0 mi SSE 6.9 mph - N/A Snow Light Snow
4:49 PM 19.4 °F 11.5 °F 17.6 °F 93% 29.78 in 3.0 mi SSE 5.8 mph - N/A Snow Light Snow
5:09 PM 19.4 °F - 17.6 °F 93% 29.79 in 1.5 mi Calm Calm - N/A Snow Light Snow
5:30 PM 19.4 °F 11.5 °F 17.6 °F 93% 29.78 in 2.0 mi SSE 5.8 mph - N/A Snow Light Snow
5:49 PM 19.4 °F 12.8 °F 17.6 °F 93% 29.76 in 2.5 mi SSE 4.6 mph - N/A Snow Light Snow
6:09 PM 19.4 °F 12.8 °F 17.6 °F 93% 29.78 in 4.0 mi South 4.6 mph - N/A Snow Light Snow
6:30 PM 19.4 °F 14.3 °F 17.6 °F 93% 29.77 in 7.0 mi South 3.5 mph - N/A Snow Light Snow
6:49 PM 19.4 °F - 17.6 °F 93% 29.77 in 10.0 mi Calm Calm - N/A   Overcast
7:09 PM 19.4 °F 12.8 °F 17.6 °F 93% 29.78 in 10.0 mi SSW 4.6 mph - N/A   Overcast
7:30 PM 19.4 °F 11.5 °F 17.6 °F 93% 29.77 in 10.0 mi SSW 5.8 mph - N/A   Overcast
7:49 PM 19.4 °F - 17.6 °F 93% 29.77 in 10.0 mi Calm Calm - N/A   Overcast
8:09 PM 19.4 °F - 17.6 °F 93% 29.76 in 7.0 mi Calm Calm - N/A   Overcast
8:30 PM 19.4 °F - 17.6 °F 93% 29.76 in 7.0 mi Calm Calm - N/A   Overcast
8:49 PM 19.4 °F 14.3 °F 17.6 °F 93% 29.76 in 7.0 mi South 3.5 mph - N/A   Overcast
9:09 PM 19.4 °F - 19.4 °F 100% 29.76 in 3.0 mi Calm Calm - N/A   Overcast
9:30 PM 21.2 °F - 19.4 °F 93% 29.75 in 2.5 mi Calm Calm - N/A   Overcast
9:49 PM 21.2 °F - 19.4 °F 93% 29.75 in 3.0 mi Calm Calm - N/A   Overcast
10:09 PM 23.0 °F 13.9 °F 21.2 °F 93% 29.76 in 7.0 mi WSW 8.1 mph - N/A   Overcast
10:30 PM 24.8 °F 12.9 °F 21.2 °F 86% 29.76 in 10.0 mi West 13.8 mph - N/A   Overcast
10:49 PM 23.0 °F 11.1 °F 21.2 °F 93% 29.76 in 7.0 mi West 12.7 mph 18.4 mph N/A   Overcast
11:09 PM 23.0 °F 13.1 °F 21.2 °F 93% 29.76 in 10.0 mi West 9.2 mph - N/A   Overcast
11:29 PM 23.0 °F 12.4 °F 21.2 °F 93% 29.77 in 10.0 mi WNW 10.4 mph 17.3 mph N/A   Overcast
11:49 PM 23.0 °F 13.1 °F 21.2 °F 93% 29.77 in 10.0 mi WNW 9.2 mph - N/A   Overcast